CENTISPACE-1 S15 (62584 NORAD) Tracking and Keplerian Element Data

This shows tracking and keplerian element data for the satellite.

Feedback or suggestion? Click here.




ElementValue
Catalog62584
NameCENTISPACE-1 S15
Epoch Orbit325
Epoch Day35.19203934
Epoch Year2025
RAAN38.1688
Inclination54.9827
Eccentricity0.0013204
Argument of Perigee347.9229
Mean Anonmoly12.1452
Mean Motion14.75283089
Decay Rate4.272E-05
L11 62584U 25007K 25035.19203934 .00004272 00000+0 65574-3 0 9999
L22 62584 54.9827 38.1688 0013204 347.9229 12.1452 14.75283089 3254



Live tracking and technical data element details for CENTISPACE-1 S15 (NORAD 62584). CENTISPACE-1 S15 can be tracked NOW for your location showing map with azimuth and elevation plus other details from your city location.







IsCatalogInMostPopularTable: catalog: 62584, numindb: 10
Update: records affected: 1



GetName: 62584 CENTISPACE-1 S15

Hit Count: updated at: Sat, 24 May 2025 16:32:49 GMT